Weather in Kyiv

Ukraine / Kyiv Region     50˚27′01″N   30˚31′24″E
temp.,
°C
wind,
m/s
gust,
m/s
humid.,
%
clouds,
%
prec.,
mm/h
press.,
hPa
HPBL,
m
1 december, tue
tue123:00n2375100 0.0 1028401
02:00−1˚nne2578100 0.0 1028405
05:00−1˚nne367495 0.0 1028497
08:00−1˚nne477398 0.0 1028514
11:00nne477897 0.0 1028515
14:00nne479099 0.3 1027486
17:00ne4795100 0.4 1027419
20:00+1˚ene4796100 0.6 1027413
2 december, wed
wed223:00ene3695100 0.2 1027377
02:00ene2595100 0.4 1028291
05:00ene3594100 0.3 1027269
08:00e2594100 0.3 1027238
11:00+1˚e359598 0.1 1027334
14:00+1˚e359299 0.1 1027318
17:00e4691100 0.1 1026354
20:00−1˚ese379395 0.3 1026303
3 december, thu
thu323:00−1˚ese369493 0.1 1026264
02:00−1˚ese259595 0.2 1026254
05:00e2496100 0.3 1025217
08:00e2596100 0.4 1025200
11:00+1˚ese3697100 0.4 1025256
14:00+2˚se3593100 0.5 1024391
17:00+2˚ese379894 0.1 1024306
20:00+2˚se389596 0.1 1024384
4 december, fri
fri423:00+1˚sse398941 0.0 1023321
02:00+2˚se498760 0.0 1023348
05:00+2˚se41086100 0.0 1022437
08:00+3˚se51286100 0.1 1022496
11:00+4˚se5118065 0.0 1022688
14:00+4˚se6117943 0.0 1021772
17:00+3˚se6118767 0.0 1021643
20:00+4˚se6128584 0.0 1022716
5 december, sat
sat523:00+4˚se61283100 0.0 1022764
02:00+4˚se61184100 0.0 1022747
05:00+4˚se61185100 0.0 1021684
08:00+3˚se61188100 0.0 1022635
11:00+4˚se61287100 0.1 1023641
14:00+4˚se61285100 0.5 1023532
17:00+3˚se6138388 0.0 1023537
20:00+3˚se7148077 0.0 1024552